Wetbulb
67.75 68.44 68.99 69.61 70.06 70.54 70.32 70.65 70.94 68.99 63.80 62.12 62.41 62.55 62.07 63.07 63.32 62.44 62.51 66.06 68.36 68.23 68.57 70.08 71.60 73.00 73.56 73.77 74.20 74.62 74.18 73.70 73.38 73.06 72.76 72.53 72.60 72.69 72.96 72.74 72.67 71.81 71.17
68.02 69.78 69.42 69.60 70.21 70.05 70.44 70.18 68.53 62.28 60.74 61.57 62.09 62.49 62.52 62.54 61.83 61.93 61.88 62.66 65.03 65.92 68.02 68.01 68.86 70.47 71.76 72.15 72.98 74.00 73.91 73.76 73.57 73.37 72.75 72.65 72.45 72.54 72.55 72.78 72.50 72.39 71.45
70.42 69.97 69.80 68.90 67.57 68.86 65.90 64.49 62.14 61.34 61.18 60.32 60.13 60.32 60.70 60.81 60.27 61.14 61.62 62.42 60.83 62.31 65.92 66.50 67.76 68.15 68.66 70.16 71.42 71.86 71.52 71.67 72.26 72.48 72.42 72.34 72.31 72.12 72.37 72.71 72.58 72.25 71.84
69.16 68.44 68.65 63.73 64.63 64.62 64.53 62.96 61.68 60.48 58.77 57.92 57.85 58.39 58.85 58.56 58.49 60.30 60.84 59.62 58.99 61.76 62.38 64.33 65.79 66.45 67.52 69.40 69.29 70.10 71.30 71.73 71.83 71.95 71.94 72.02 72.07 71.89 72.11 72.43 72.37 72.23 72.03
68.63 67.36 64.79 64.04 62.83 61.98 61.88 62.31 58.87 59.32 57.84 57.44 57.69 58.32 57.13 57.32 57.81 59.18 58.36 58.67 60.19 60.68 60.76 62.14 64.11 64.27 66.40 67.94 69.24 70.07 70.19 69.58 69.43 70.03 70.48 71.62 72.20 71.93 71.90 71.98 72.14 72.03 71.83
65.58 63.54 63.34 62.77 61.70 59.36 59.02 58.53 57.82 57.69 57.65 56.45 56.64 55.92 56.56 56.88 58.00 57.53 57.25 58.32 59.71 59.89 60.44 60.98 60.91 61.54 64.99 67.54 68.16 68.46 68.71 68.41 67.81 67.88 67.75 67.52 67.73 69.23 71.43 72.06 72.04 72.17 71.99
64.08 62.39 61.09 60.49 59.72 58.18 57.70 58.12 57.32 56.69 56.26 56.66 55.26 55.24 55.39 56.12 56.04 57.54 57.90 58.06 58.95 59.59 60.36 60.84 60.61 61.39 63.61 64.83 65.19 66.23 67.20 66.40 66.11 66.23 66.27 65.91 66.15 66.93 67.54 68.30 70.57 71.09 71.31
63.06 61.76 60.22 58.43 57.78 57.46 57.84 57.70 57.09 55.83 55.91 56.17 54.49 52.75 50.59 53.31 54.85 57.35 56.94 57.82 58.58 58.70 59.01 60.36 60.49 61.29 63.90 61.42 62.20 63.42 64.19 64.31 64.79 64.63 63.83 63.86 64.65 65.55 66.56 66.89 67.51 68.70 70.08
61.74 61.08 59.32 58.32 58.20 58.87 58.35 57.33 56.67 56.10 54.18 55.08 55.62 54.25 49.71 49.13 52.38 55.47 57.05 57.26 57.94 57.60 58.70 59.67 60.26 61.14 61.85 60.27 60.22 62.20 62.40 62.33 63.37 63.44 62.88 62.46 63.23 64.52 65.40 66.13 66.63 67.54 68.69
60.96 60.59 59.95 59.11 58.94 58.03 56.99 56.03 56.07 55.89 55.62 53.72 54.58 56.33 56.33 55.25 52.05 50.71 54.74 55.67 56.63 57.02 58.41 58.45 59.46 60.90 60.22 59.40 60.42 61.31 60.81 60.53 60.63 60.80 61.19 61.78 63.05 64.11 64.91 65.49 65.80 66.58 67.86
60.31 60.61 59.59 58.57 58.01 57.97 57.79 57.37 56.45 55.58 56.06 55.32 54.11 54.05 54.01 54.22 54.50 52.33 49.94 52.21 55.29 57.10 58.42 58.75 58.89 59.91 59.24 59.48 59.59 59.79 59.28 59.10 58.60 58.11 59.09 60.42 62.59 63.92 64.55 65.11 66.10 66.20 67.01
58.40 59.12 59.07 58.44 58.37 57.76 57.10 56.68 56.84 56.15 55.23 54.66 54.44 53.94 53.41 53.11 52.89 52.65 51.20 51.61 52.40 55.36 58.36 58.96 58.65 57.58 57.85 57.45 58.35 58.75 58.12 57.72 57.37 57.02 57.82 59.61 61.89 63.07 64.15 65.00 65.67 66.03 66.70
57.16 56.81 57.67 57.02 56.96 56.57 56.58 56.30 55.88 55.42 54.70 54.15 54.16 54.03 54.01 53.80 54.15 54.27 52.68 51.40 52.15 53.98 55.91 58.19 57.74 56.12 54.85 55.57 56.23 57.46 56.85 56.88 56.67 56.17 56.85 57.54 59.25 60.68 61.70 62.48 63.42 64.37 64.59
55.65 56.48 56.91 56.85 56.55 56.41 56.05 55.80 54.86 54.56 54.70 54.36 54.26 53.90 54.28 54.11 54.62 54.38 53.89 53.49 49.62 50.35 52.49 54.93 55.64 53.75 53.52 53.59 55.66 55.36 53.99 54.87 56.08 55.58 55.44 56.13 56.84 57.81 58.31 58.66 58.85 59.58 60.41
55.10 56.53 56.39 55.50 55.63 55.69 55.61 55.32 53.93 53.89 54.34 54.19 54.44 54.07 53.36 53.72 54.68 55.42 55.64 54.41 50.66 46.44 47.58 53.05 53.26 51.80 51.27 52.42 52.54 51.14 51.29 53.78 54.09 54.34 53.89 53.68 54.07 54.56 55.24 55.32 55.69 55.85 55.88
51.88 53.07 54.89 55.82 55.44 55.36 55.28 54.81 54.51 54.34 54.10 54.34 53.17 53.12 53.64 53.77 54.03 53.67 52.55 51.61 50.32 48.60 46.67 51.79 50.05 48.91 49.25 49.78 50.64 49.04 50.10 51.74 52.87 52.79 52.49 51.98 51.59 51.91 52.19 52.04 52.27 52.65 53.11
49.23 49.91 52.20 54.36 54.87 54.97 55.49 54.58 53.84 53.56 52.57 52.44 52.22 52.37 52.21 52.72 51.52 50.24 49.19 48.51 48.15 49.51 48.10 49.25 47.77 47.84 47.30 46.82 47.60 48.10 48.21 48.68 49.70 51.16 50.56 49.93 49.49 49.39 49.53 49.46 49.05 49.04 49.40
47.98 48.78 50.17 51.87 53.07 53.70 54.20 53.99 52.45 52.19 51.64 50.56 50.61 51.16 50.96 50.51 49.01 48.14 47.35 48.76 49.13 48.90 46.80 45.20 46.15 46.01 46.03 46.69 46.94 46.13 46.68 47.79 47.89 50.32 49.71 49.33 48.69 48.55 48.46 48.13 47.65 47.42 47.08
46.25 47.47 48.91 49.74 51.36 53.17 52.07 51.63 51.29 51.22 50.65 50.57 50.00 50.29 49.52 48.63 46.87 46.55 46.27 44.86 46.13 46.27 45.97 45.58 44.03 45.57 45.47 45.76 45.50 46.43 46.32 46.29 47.78 49.06 48.97 49.14 48.43 48.38 48.81 48.24 47.79 46.78 45.81
46.39 46.85 48.19 49.02 51.33 51.14 51.04 50.72 50.06 49.13 49.81 49.95 49.95 49.67 48.86 47.70 46.92 45.83 44.39 45.23 45.31 44.55 44.51 43.97 43.63 43.63 44.13 45.39 46.05 45.08 44.95 46.52 45.85 46.87 47.84 48.21 47.93 47.73 48.43 47.37 47.30 47.17 45.97
47.73 49.15 49.80 50.81 50.84 50.25 49.72 49.06 48.82 49.07 49.41 48.74 49.33 48.96 48.75 48.69 48.56 47.06 44.24 44.31 43.14 42.10 42.16 42.03 42.64 43.16 43.38 43.51 43.06 43.69 43.07 42.93 44.97 45.39 45.60 47.68 48.19 47.44 46.60 45.86 46.45 46.84 46.16
46.48 46.75 46.43 46.43 45.72 46.93 46.44 46.85 48.29 48.05 48.94 48.02 48.54 47.97 47.54 47.29 47.64 47.46 47.03 46.03 45.00 43.15 41.80 42.28 43.05 42.46 43.05 43.18 44.28 43.58 43.34 41.83 40.22 45.58 43.94 44.22 46.22 46.14 46.01 45.65 45.99 46.02 46.00
45.37 44.75 44.95 45.86 45.85 46.00 45.35 45.39 46.82 48.31 47.36 46.96 47.38 46.19 45.48 45.76 45.01 45.01 45.64 45.78 45.88 45.81 45.81 43.08 41.89 42.35 42.38 43.86 43.47 43.84 43.99 42.07 41.15 42.93 43.47 42.13 43.95 43.77 45.81 45.58 45.94 46.38 45.82
45.21 44.51 43.83 44.62 45.02 45.33 44.79 44.53 45.79 48.06 48.33 46.91 46.21 45.48 44.82 45.28 45.67 45.60 45.13 43.99 43.28 43.78 44.84 44.45 43.77 44.10 44.71 45.69 43.50 43.33 43.89 43.48 44.41 43.20 43.85 40.55 43.34 42.45 45.20 45.72 46.02 46.09 45.71
43.91 43.61 43.70 43.93 43.80 43.60 43.94 44.10 45.40 46.55 46.40 45.18 46.13 46.65 46.51 45.71 43.88 43.34 45.19 44.49 44.58 44.94 46.04 46.40 45.45 44.01 43.02 43.58 44.80 44.56 42.17 41.08 39.92 41.20 43.67 41.02 41.83 41.47 44.04 44.29 44.91 45.79 45.27
42.73 43.35 43.19 43.53 44.22 43.17 42.44 43.04 45.06 45.45 44.28 44.38 45.03 45.28 43.48 42.43 40.51 40.26 42.96 44.69 42.94 43.89 44.83 45.71 46.11 45.00 44.81 45.41 45.90 45.55 43.63 40.62 39.65 39.73 42.97 40.19 41.21 41.41 40.37 43.78 44.57 44.52 44.74
MSLP
1015.19 1015.02 1015.03 1015.04 1015.03 1015.00 1015.16 1015.24 1015.13 1015.22 1015.45 1015.45 1015.49 1015.43 1015.38 1015.31 1015.21 1015.03 1014.98 1014.63 1014.46 1014.26 1014.02 1013.68 1013.35 1013.03 1012.79 1012.54 1012.24 1011.99 1011.77 1011.75 1011.76 1011.86 1011.89 1011.95 1011.97 1012.21 1012.25 1012.44 1012.83 1013.13 1013.24
1014.84 1014.97 1014.99 1015.01 1015.05 1014.95 1015.25 1015.01 1015.11 1015.42 1015.71 1015.65 1015.65 1015.54 1015.48 1015.41 1015.26 1015.03 1014.88 1014.57 1014.44 1014.22 1013.86 1013.60 1013.28 1012.95 1012.73 1012.50 1012.08 1011.83 1011.55 1011.42 1011.32 1011.34 1011.26 1011.17 1011.18 1011.27 1011.39 1011.49 1011.81 1012.08 1012.23
1014.69 1014.83 1014.97 1015.20 1014.97 1015.04 1015.37 1015.45 1015.51 1015.64 1015.91 1015.86 1015.68 1015.53 1015.55 1015.40 1015.14 1015.00 1014.73 1014.58 1014.43 1014.19 1013.79 1013.51 1013.20 1012.95 1012.65 1012.35 1012.01 1011.80 1011.50 1011.25 1011.07 1010.91 1010.66 1010.46 1010.36 1010.34 1010.39 1010.52 1010.67 1010.87 1011.16
1014.67 1014.79 1015.13 1015.19 1015.27 1015.34 1015.44 1015.70 1015.95 1016.11 1016.13 1015.99 1015.75 1015.52 1015.55 1015.37 1015.18 1014.86 1014.79 1014.57 1014.56 1014.24 1013.85 1013.61 1013.27 1012.93 1012.52 1012.24 1012.02 1011.69 1011.43 1011.26 1010.94 1010.55 1010.08 1009.75 1009.61 1009.58 1009.48 1009.58 1009.69 1009.77 1009.97
1014.71 1014.74 1015.48 1015.59 1015.48 1015.64 1015.68 1016.00 1016.24 1016.26 1016.39 1016.07 1015.60 1015.47 1015.39 1015.28 1015.17 1014.99 1014.90 1014.65 1014.27 1013.97 1013.99 1013.56 1013.25 1012.95 1012.60 1012.22 1011.99 1011.78 1011.55 1011.27 1010.95 1010.52 1010.06 1009.48 1009.11 1008.86 1008.80 1008.84 1008.83 1008.97 1009.09
1014.81 1015.16 1015.28 1015.78 1015.83 1015.92 1016.24 1016.42 1016.62 1016.69 1016.73 1016.26 1015.70 1015.48 1015.43 1015.28 1015.27 1015.35 1015.15 1014.73 1014.37 1014.00 1013.71 1013.46 1013.38 1013.01 1012.61 1012.30 1012.13 1011.88 1011.51 1011.16 1010.89 1010.53 1010.17 1009.78 1009.39 1008.93 1008.53 1008.22 1008.16 1008.17 1008.26
1014.90 1015.07 1015.24 1015.67 1015.84 1016.31 1016.79 1016.68 1016.98 1017.03 1016.86 1016.48 1016.11 1015.67 1015.62 1015.61 1015.65 1015.41 1015.06 1014.83 1014.34 1013.89 1013.51 1013.33 1013.28 1013.00 1012.58 1012.43 1012.33 1011.96 1011.63 1011.17 1010.78 1010.35 1009.95 1009.67 1009.30 1008.92 1008.50 1008.17 1007.89 1007.61 1007.50
1014.73 1014.88 1015.11 1015.73 1016.03 1016.41 1016.64 1016.73 1017.26 1017.23 1017.13 1016.98 1017.04 1017.24 1016.98 1016.17 1015.60 1015.17 1014.90 1014.63 1014.31 1014.05 1013.48 1013.05 1013.07 1012.78 1012.64 1012.46 1012.33 1011.95 1011.59 1011.24 1010.83 1010.40 1009.99 1009.53 1009.07 1008.56 1008.10 1007.76 1007.43 1007.11 1006.82
1014.96 1015.05 1015.19 1015.22 1015.55 1016.02 1016.39 1016.66 1017.07 1017.42 1017.41 1017.16 1016.86 1017.21 1017.27 1016.86 1016.27 1015.08 1014.63 1014.51 1014.38 1014.16 1013.39 1012.86 1012.59 1012.73 1012.41 1012.35 1012.26 1011.71 1011.43 1011.27 1010.80 1010.29 1009.85 1009.43 1008.83 1008.23 1007.62 1007.17 1006.82 1006.51 1006.14
1015.39 1014.91 1014.89 1015.15 1015.31 1015.22 1015.21 1015.56 1015.62 1016.27 1016.08 1016.87 1016.61 1017.13 1016.88 1017.05 1016.68 1015.84 1014.99 1014.61 1014.44 1013.86 1013.15 1012.51 1012.13 1012.44 1012.14 1012.09 1011.96 1011.65 1011.40 1011.17 1010.85 1010.43 1009.83 1009.19 1008.37 1007.63 1007.06 1006.60 1006.18 1005.80 1005.36
1015.17 1015.19 1015.05 1014.96 1015.14 1015.33 1015.47 1015.48 1015.68 1015.55 1015.76 1015.99 1016.34 1016.83 1016.75 1016.82 1016.60 1016.38 1014.87 1014.33 1013.90 1013.33 1012.65 1012.38 1012.24 1012.02 1012.04 1012.03 1011.90 1011.58 1011.25 1010.94 1010.64 1010.28 1009.60 1008.84 1007.91 1006.95 1006.34 1005.89 1005.46 1005.12 1004.62
1015.20 1015.15 1015.15 1015.00 1014.97 1015.06 1015.49 1015.20 1015.11 1015.17 1015.42 1015.66 1015.98 1016.18 1016.46 1016.56 1016.15 1015.96 1015.23 1014.36 1013.73 1012.58 1012.24 1011.88 1011.75 1011.88 1012.01 1012.04 1011.87 1011.47 1011.22 1010.95 1010.54 1010.12 1009.61 1008.91 1007.92 1007.03 1006.36 1005.75 1005.20 1004.80 1004.37
1015.53 1015.01 1015.12 1015.13 1014.77 1014.92 1014.83 1014.86 1015.05 1014.97 1015.09 1015.36 1015.52 1015.47 1015.61 1015.73 1015.72 1015.61 1015.15 1014.31 1013.40 1012.43 1011.94 1011.58 1011.58 1011.50 1011.84 1011.96 1011.80 1011.41 1011.26 1010.92 1010.56 1010.24 1009.72 1009.09 1008.37 1007.51 1006.76 1006.23 1005.73 1005.22 1004.81
1015.85 1015.56 1015.27 1014.95 1014.76 1014.61 1014.64 1014.79 1014.76 1014.60 1014.66 1014.79 1014.81 1014.86 1014.74 1014.81 1015.16 1015.11 1014.89 1014.35 1013.16 1012.53 1011.89 1011.52 1011.57 1011.50 1011.76 1011.94 1011.73 1011.54 1011.47 1011.12 1010.67 1010.29 1009.89 1009.35 1008.73 1007.98 1007.34 1006.98 1006.63 1006.20 1005.79
1016.13 1015.50 1015.11 1014.97 1014.91 1014.84 1014.77 1014.81 1014.86 1014.75 1014.68 1014.78 1014.84 1014.83 1014.89 1014.40 1014.42 1014.53 1014.24 1014.18 1013.78 1012.55 1011.43 1011.12 1011.54 1011.78 1011.76 1011.86 1011.88 1011.88 1011.59 1011.07 1010.82 1010.41 1010.09 1009.78 1009.31 1008.70 1008.11 1007.79 1007.45 1007.11 1006.87
1016.26 1015.74 1015.23 1014.78 1014.55 1014.55 1014.65 1014.74 1014.87 1014.83 1014.72 1014.79 1014.83 1014.93 1014.91 1014.42 1014.22 1014.21 1014.17 1013.96 1013.81 1013.20 1012.11 1011.81 1012.01 1012.13 1012.02 1012.06 1011.96 1011.98 1011.65 1011.21 1010.88 1010.45 1010.23 1010.04 1009.77 1009.39 1008.96 1008.59 1008.27 1007.95 1007.75
1016.26 1015.72 1015.26 1014.82 1014.51 1014.45 1014.43 1014.53 1014.58 1014.66 1014.57 1014.78 1014.79 1014.87 1014.60 1014.17 1013.95 1013.92 1013.86 1013.55 1013.39 1013.01 1012.40 1012.10 1012.25 1012.27 1012.14 1012.16 1012.24 1012.03 1011.78 1011.57 1011.18 1010.75 1010.51 1010.38 1010.16 1009.85 1009.64 1009.23 1008.99 1008.73 1008.52
1016.04 1015.59 1015.08 1014.65 1014.32 1014.10 1014.11 1014.12 1014.33 1014.58 1014.62 1014.72 1014.68 1014.34 1014.42 1013.83 1013.79 1013.91 1013.55 1013.19 1013.04 1012.92 1012.82 1012.49 1012.48 1012.49 1012.42 1012.42 1012.31 1012.02 1011.80 1011.63 1011.36 1010.93 1010.77 1010.62 1010.43 1010.18 1009.98 1009.82 1009.58 1009.27 1009.09
1015.67 1015.15 1014.76 1014.37 1014.02 1013.89 1013.93 1014.08 1014.32 1014.37 1014.61 1014.44 1014.25 1014.21 1014.01 1013.81 1013.79 1013.68 1013.36 1013.18 1013.15 1013.02 1012.94 1012.73 1012.74 1012.68 1012.69 1012.62 1012.29 1012.09 1011.83 1011.59 1011.34 1011.07 1010.96 1010.79 1010.57 1010.28 1010.07 1009.98 1009.66 1009.52 1009.39
1015.45 1014.86 1014.40 1014.06 1013.87 1014.00 1014.14 1014.20 1014.20 1014.13 1014.05 1013.95 1013.89 1013.99 1013.66 1013.78 1013.76 1013.65 1013.48 1013.35 1013.22 1013.14 1013.14 1013.05 1012.93 1012.88 1012.99 1012.69 1012.55 1012.34 1011.79 1011.63 1011.44 1011.35 1011.03 1010.68 1010.53 1010.32 1010.20 1010.06 1009.79 1009.56 1009.50
1015.44 1014.91 1014.35 1013.98 1013.95 1014.06 1014.18 1013.79 1013.77 1013.97 1013.92 1013.79 1013.63 1013.74 1013.75 1013.69 1013.63 1013.78 1013.64 1013.41 1013.30 1013.34 1013.60 1013.31 1013.02 1013.22 1013.12 1012.82 1012.69 1012.40 1012.03 1011.83 1011.65 1011.73 1011.14 1010.59 1010.36 1010.24 1010.26 1010.17 1009.96 1009.83 1009.62
1015.47 1015.20 1014.95 1014.65 1014.33 1014.13 1014.07 1013.85 1013.85 1013.71 1013.49 1013.66 1013.65 1013.81 1013.86 1014.04 1014.07 1013.87 1013.91 1013.63 1013.60 1013.71 1013.83 1013.28 1013.47 1013.56 1013.34 1013.12 1012.83 1012.39 1012.11 1011.84 1011.78 1011.73 1011.28 1010.56 1010.40 1010.24 1010.25 1010.18 1010.13 1009.90 1009.66
1015.77 1015.51 1015.24 1014.87 1014.51 1014.25 1014.04 1013.86 1013.64 1013.45 1013.51 1013.64 1013.68 1014.06 1014.43 1014.68 1014.40 1014.52 1014.16 1014.09 1013.93 1013.89 1013.80 1013.68 1013.69 1013.76 1013.54 1013.18 1012.85 1012.36 1012.01 1011.91 1011.71 1011.70 1011.35 1010.61 1010.43 1010.29 1010.21 1010.15 1010.10 1009.93 1009.70
1016.11 1015.93 1015.67 1015.35 1014.98 1014.68 1014.15 1013.64 1013.33 1013.28 1013.29 1013.63 1014.24 1014.82 1015.02 1015.11 1015.02 1014.74 1014.55 1014.41 1014.23 1014.02 1013.68 1013.51 1013.61 1013.59 1013.47 1013.10 1012.73 1012.42 1012.21 1011.80 1011.54 1011.73 1011.59 1010.97 1010.61 1010.38 1010.22 1010.11 1010.06 1009.88 1009.65
1016.61 1016.45 1016.12 1015.74 1015.31 1014.98 1014.46 1013.98 1013.67 1013.69 1014.17 1014.74 1015.07 1015.29 1015.43 1015.30 1014.96 1014.78 1014.63 1014.32 1013.95 1013.63 1013.51 1013.39 1013.34 1013.37 1013.25 1012.87 1012.49 1012.20 1012.07 1011.81 1011.58 1011.62 1011.74 1011.47 1010.89 1010.56 1010.24 1010.12 1010.02 1009.90 1009.67
1017.19 1016.96 1016.74 1016.50 1016.18 1015.84 1015.42 1014.94 1014.68 1014.74 1015.25 1015.53 1015.76 1015.81 1015.61 1015.36 1015.00 1014.47 1014.24 1013.98 1013.78 1013.61 1013.51 1013.34 1013.30 1013.22 1012.98 1012.77 1012.56 1012.49 1012.34 1012.08 1012.05 1011.69 1011.84 1011.63 1011.11 1010.86 1010.39 1010.10 1010.09 1009.88 1009.67
Wind_Speed
3 3 3 3 3 2 2 3 2 1 3 4 3 4 4 4 5 3 3 11 11 14 16 15 16 14 13 12 12 13 14 15 16 17 19 21 23 23 24 25 24 24 24
4 3 3 3 3 3 3 1 2 3 3 3 3 4 4 4 4 4 4 4 12 13 13 16 17 16 15 14 13 11 11 11 13 14 17 19 22 22 24 25 25 26 26
3 2 2 2 1 1 2 2 4 3 3 3 3 4 3 4 4 4 4 4 6 10 15 17 17 17 17 14 13 12 11 11 11 13 16 17 21 22 23 24 25 27 26
3 1 2 3 2 3 2 3 2 3 3 3 2 3 4 4 5 4 5 5 5 6 9 16 17 17 17 13 14 15 15 14 15 15 17 17 17 19 20 22 24 24 25
1 2 2 2 3 3 3 2 3 2 3 4 4 2 4 4 5 5 7 6 7 6 6 12 17 16 15 14 14 14 14 15 17 18 20 17 14 15 17 19 22 23 24
5 5 4 4 3 4 4 3 4 4 2 3 4 5 4 4 3 5 5 5 5 7 7 8 7 9 15 13 13 15 16 17 18 19 19 18 18 17 14 15 18 21 23
6 6 5 5 5 5 3 4 2 4 6 5 3 4 3 3 2 5 4 4 8 9 9 8 6 6 5 11 13 14 15 19 21 21 20 19 19 18 16 14 13 14 17
6 6 7 5 5 4 5 5 3 1 1 4 2 1 4 4 3 5 3 3 8 7 10 10 9 7 5 5 9 13 15 19 19 20 20 21 22 21 19 18 18 18 18
4 6 7 7 7 5 4 4 3 2 1 1 2 2 0 4 4 3 4 3 7 7 7 8 9 7 6 5 7 9 15 17 19 20 21 21 22 22 21 20 20 20 21
1 5 8 6 6 5 7 5 6 5 5 2 2 3 2 4 3 5 2 5 4 8 8 7 7 6 5 3 9 11 13 15 17 18 19 21 22 21 20 20 20 21 21
4 4 5 6 5 3 3 5 6 5 3 2 2 1 2 3 6 6 8 5 6 6 7 7 5 4 5 6 6 7 12 14 16 18 19 20 21 18 16 16 16 17 18
2 3 3 4 5 5 6 4 3 4 4 3 3 3 3 3 3 4 5 9 10 7 4 7 2 2 4 5 9 13 12 14 15 15 16 17 18 14 14 14 11 11 10
3 5 5 6 4 5 4 4 4 4 5 4 5 4 4 5 4 5 7 10 9 7 6 5 3 0 3 4 6 12 11 13 13 13 13 13 15 15 15 15 16 16 15
6 5 6 5 6 5 5 5 4 4 5 5 6 6 4 5 5 5 6 6 10 9 8 8 2 1 2 4 8 9 6 12 14 10 13 15 15 13 15 18 19 21 18
8 8 6 6 6 5 5 4 4 4 3 3 4 4 4 4 4 6 6 6 5 10 10 4 3 2 3 3 6 5 5 10 13 10 11 13 15 16 17 18 18 18 18
9 9 8 6 5 4 4 3 4 5 4 4 4 5 6 4 5 5 6 5 6 8 6 2 0 3 3 3 5 5 6 10 12 11 13 14 15 15 15 16 17 17 16
9 10 9 7 5 6 5 5 5 8 6 5 4 6 8 6 6 6 5 4 6 6 8 1 1 2 2 3 4 3 4 4 5 11 12 12 12 12 12 13 14 14 14
8 8 9 9 7 6 5 5 4 4 3 4 6 6 10 6 7 7 5 5 4 3 3 6 1 2 2 3 3 3 3 3 3 7 10 10 10 9 8 10 11 12 12
10 10 9 9 7 4 1 1 1 3 4 7 5 6 7 7 7 5 4 3 3 2 3 2 0 1 1 1 2 2 2 2 2 7 6 6 6 7 7 6 9 10 10
10 9 9 9 6 1 2 3 3 4 5 6 4 6 4 4 4 4 2 2 1 1 2 1 1 1 1 2 2 2 2 1 2 5 6 5 3 6 7 8 10 10 10
7 7 8 5 3 1 3 5 3 6 7 5 4 4 2 2 6 2 0 2 3 3 2 2 2 1 2 2 2 2 2 3 1 2 6 3 2 0 2 5 7 10 10
5 6 6 6 5 4 7 9 8 7 5 4 5 2 4 5 6 7 6 8 6 4 2 2 3 3 4 2 3 3 2 2 3 1 5 3 2 1 1 1 5 8 9
5 5 6 7 7 7 10 10 10 5 5 4 3 5 6 5 2 2 6 7 8 7 5 2 2 2 4 5 5 5 2 2 2 3 5 3 2 2 1 1 5 7 8
7 6 7 7 7 6 9 8 7 4 1 10 10 6 3 2 5 4 4 4 2 1 1 1 1 3 3 4 2 2 3 5 1 1 7 3 3 2 2 1 5 8 7
5 5 6 7 7 8 13 12 8 9 10 10 6 6 5 4 5 6 5 4 3 2 3 2 2 2 4 5 6 2 4 5 4 2 5 3 2 3 2 0 2 9 8
6 5 8 9 14 10 17 17 13 9 10 6 5 3 3 6 8 7 5 4 5 3 2 2 3 2 4 5 6 4 3 3 3 3 5 5 2 3 2 0 1 3 4
Wind_Direction
232 232 248 250 238 255 273 268 271 63 66 47 41 25 23 15 360 352 346 359 358 349 355 350 350 339 339 333 318 285 262 250 244 242 237 235 234 234 231 230 230 228 227
221 244 272 264 269 245 250 213 155 101 61 34 19 11 9 358 345 342 351 2 3 353 353 349 349 351 346 345 340 326 308 273 261 256 249 244 239 237 239 237 230 228 228
232 201 204 274 20 48 75 55 66 64 54 13 11 353 353 345 338 349 356 8 353 346 353 350 350 348 342 338 346 343 335 320 300 286 271 254 246 242 239 240 237 232 229
185 130 44 64 52 76 119 81 60 65 51 17 345 350 343 336 357 9 14 355 358 356 349 346 343 343 342 339 343 344 342 340 328 308 295 271 258 249 245 242 244 237 229
139 102 70 54 68 78 63 71 53 92 23 353 346 328 343 2 15 16 352 349 6 359 342 343 346 342 340 343 351 349 356 356 351 353 354 332 290 268 258 250 246 244 239
100 109 106 77 68 63 48 44 57 46 26 351 351 347 348 11 36 356 334 343 8 352 351 341 336 334 342 354 352 348 347 353 348 345 345 345 344 341 314 274 256 250 247
120 117 98 86 76 77 63 49 70 33 18 1 2 344 357 350 294 338 351 1 2 356 346 338 331 331 335 356 349 346 355 350 344 340 338 336 330 325 319 309 299 279 261
128 123 117 107 98 99 74 57 31 131 41 22 92 78 346 329 308 336 308 329 352 336 333 330 327 333 351 349 336 342 345 344 339 338 336 329 322 317 310 304 298 291 278
125 116 117 131 137 151 131 129 104 55 24 288 67 130 274 247 323 304 316 308 335 320 309 313 320 329 328 340 332 332 337 337 336 335 333 327 318 310 302 299 298 292 284
78 143 150 153 156 165 161 168 160 178 150 195 123 215 209 230 260 304 269 286 296 297 298 304 309 310 327 330 313 324 334 329 333 331 330 326 319 309 299 292 291 288 282
226 186 170 167 172 188 175 170 176 165 167 145 147 195 255 262 250 251 297 284 288 268 281 293 299 312 330 315 312 308 329 327 332 332 333 332 326 321 311 298 294 297 291
273 246 218 196 193 187 204 194 174 161 160 173 182 184 208 247 263 255 275 294 282 286 284 285 261 295 316 319 315 319 327 332 334 336 336 340 341 347 356 355 341 339 358
287 237 218 218 207 213 210 186 193 185 179 186 193 205 203 232 248 262 276 284 285 303 292 282 251 198 302 315 310 315 343 337 341 343 341 353 359 16 29 29 29 35 46
297 289 273 255 233 222 216 214 222 199 192 205 208 211 211 226 238 239 254 282 296 288 289 283 205 91 17 338 333 359 343 338 349 14 18 18 19 22 39 44 46 47 43
316 306 283 258 267 266 247 233 247 239 227 238 244 250 256 254 241 246 244 256 266 290 294 294 299 55 24 359 329 2 343 336 341 1 25 22 20 28 41 45 43 47 48
320 321 312 292 277 275 276 268 277 279 260 269 270 268 266 258 255 253 257 257 255 263 285 330 164 8 21 346 338 3 347 2 349 31 32 29 24 23 30 37 39 38 41
310 314 310 303 284 273 264 271 258 263 254 271 287 287 287 293 286 286 274 264 256 247 269 293 14 357 1 353 339 337 354 347 345 25 28 27 22 23 25 35 36 35 32
299 298 300 296 289 278 261 257 269 285 288 294 293 305 295 309 303 292 286 286 287 291 278 285 30 354 6 325 303 323 348 352 341 3 16 22 21 18 33 37 32 32 29
303 296 288 285 286 285 36 111 264 291 287 251 259 279 300 315 303 300 304 307 298 298 270 281 40 21 315 319 328 319 324 331 337 357 342 355 6 0 358 21 28 27 21
299 287 281 273 259 118 8 311 282 262 264 267 279 273 267 281 301 313 311 304 355 15 4 74 48 17 313 313 301 313 336 337 337 356 327 289 311 352 15 15 15 22 15
322 333 349 22 63 220 251 246 251 275 265 267 246 261 244 37 35 351 8 56 89 71 356 33 45 343 321 329 318 314 300 315 287 347 323 306 289 6 340 8 12 8 5
329 350 358 346 346 319 308 307 280 258 263 267 271 166 62 46 40 38 60 81 79 62 10 39 25 354 330 296 290 313 292 353 339 24 328 306 349 343 310 343 360 355 351
357 1 359 352 339 333 326 320 307 285 274 260 136 84 53 33 2 66 66 71 54 44 59 141 41 352 328 334 316 322 330 280 276 3 333 299 5 333 297 338 347 353 354
6 7 357 349 346 337 333 319 311 290 99 89 78 89 102 35 31 30 40 34 11 265 106 101 220 279 277 322 304 293 305 301 264 100 2 306 337 310 322 8 20 6 3
12 8 13 10 18 19 28 35 49 77 84 82 74 54 27 344 319 308 298 296 300 298 256 232 81 17 337 351 17 8 16 15 357 9 17 296 319 305 304 327 29 19 13
19 20 38 31 34 36 28 35 53 76 77 62 52 50 358 305 298 292 272 275 283 275 289 12 359 26 13 16 6 30 353 26 1 333 17 327 319 327 317 351 16 4 5